User: anonymous   Login
Location: Unspecified
(0.0000°N, 0.0000°E)
Time: 14:16:04
(UTC+02:00)
Language:

Timation 2 Rocket - Orbit

View from above orbital plane
View from above orbital plane
View from above satellite
View from above satellite

Ground track
Ground track

The orbit data is extracted from the following two-line orbital elements,

1 04159U 69082AB  15124.51940999  .00000004  00000-0  56887-4 0  9995
2 04159 069.9622 311.1490 0116486 332.7840 026.7177 13.72298436281799
Epoch (UTC): 04 May 2015 12:27:57
Eccentricity: 0.0116486
inclination: 69.9622°
perigee height: 905 km
apogee height: 1077 km
right ascension of ascending node: 311.1490°
argument of perigee: 332.7840°
revolutions per day: 13.72298436
mean anomaly at epoch: 26.7177°
orbit number at epoch: 28179

The dashed part of the orbit path shows where the satellite is in the earth's shadow,  

DLR